Home > Weather > Kairouan > Past weeks

Flag for Tunisia Past Weather in Kairouan, Tunisia — Yesterday and Last 2 Weeks

Now
79 °F

Sunny.


Feels Like: 79 °F
Forecast: 62 / 100 °F
Wind: 2 mph from Northwest

Location: Kairouan Airport

Current Time: May 24, 2016 at 12:54:16 PM

Latest Report: May 24, 2016 at 12:00 PM


Visibility: 10 mi

Pressure: 30.04 "Hg

Humidity: 32%

Dew Point: 46 °F

Location of KairouanLocation

Past Weather in Kairouan — Graph

°F

Kairouan Temperature Yesterday

Maximum temperature yesterday: 91 °F (at 2:00 PM)
Minimum temperature yesterday: 66 °F (at 4:00 AM)
Average temperature yesterday: 77 °F

High & Low Weather Summary for the Past Weeks

 TemperatureHumidityPressure
High99 °F (May 11, 1:00 PM)83% (May 11, 1:00 AM)30.15 "Hg (May 11, 1:00 AM)
Low57 °F (May 15, 4:00 AM)20% (May 22, 4:00 PM)29.62 "Hg (May 11, 3:00 PM)
Average72 °F53%29.97 "Hg
* Reported May 9 11:00 AM — May 24 11:00 AM, Kairouan, Weather by CustomWeather, © 2016

Note: Actual official high and low records may vary slightly from our data, if they occured in-between our weather recording intervals... More about our weather records

Advertising

Kairouan Weather History for the Previous 24 Hours

Scroll right to see more
 ConditionsComfort  
Time TempWeatherWind HumidityBarometerVisibility
11:00 AM
Tue, May 24
75 °FSunny.2 mph36%30.04 "Hg10 mi
10:00 AM73 °FSunny.2 mph36%30.07 "Hg10 mi
9:00 AM72 °FSunny.2 mph36%30.07 "Hg10 mi
8:00 AM68 °FSunny.2 mph38%30.07 "Hg10 mi
7:00 AM64 °FSunny.3 mph43%30.07 "Hg10 mi
6:00 AM63 °FSunny.No wind45%30.07 "Hg10 mi
5:00 AM61 °FClear.No wind45%30.07 "Hg10 mi
4:00 AM63 °FClear.2 mph42%30.04 "Hg10 mi
3:00 AM63 °FMild.No wind42%30.07 "HgN/A
2:00 AM64 °FPassing clouds.3 mph40%30.07 "HgN/A
1:00 AM64 °FClear.5 mph43%30.09 "Hg10 mi
12:00 AM66 °FClear.3 mph43%30.12 "Hg10 mi
11:00 PM
Mon, May 23
68 °FClear.5 mph40%30.12 "Hg10 mi
10:00 PM70 °FClear.6 mph38%30.09 "Hg10 mi
9:00 PM72 °FClear.7 mph38%30.09 "Hg10 mi
8:00 PM73 °FClear.5 mph44%30.07 "Hg10 mi
7:00 PM77 °FSunny.5 mph51%30.07 "Hg10 mi
6:00 PM79 °FSunny.7 mph48%30.04 "Hg10 mi
5:00 PM86 °FSunny.7 mph35%30.01 "Hg10 mi
4:00 PM90 °FSunny.7 mph26%30.04 "Hg10 mi
3:00 PM90 °FSunny.9 mph27%30.04 "Hg10 mi
2:00 PM91 °FSunny.2 mph26%30.04 "Hg10 mi
1:00 PM90 °FSunny.2 mph27%30.04 "Hg10 mi
12:00 PM88 °FSunny.3 mph29%30.07 "Hg10 mi
Weather by CustomWeather, © 2016

See weather overviewHow to use our weather pages